Location: Bacea
(45.9500°N, 22.6667°E)
Time: 23:29:45
(UTC+00:00)

Cosmos 1300 - Pass Details

Date: 04 June 2022
Orbit: 506 x 508 km, 82.5° (Epoch: 01 July)

Event Time Altitude Azimuth Distance (km) Brightness Sun altitude
Rises 22:01:11 0° 353° (N) 2,622 7.9 -21.3°
Reaches altitude 10° 22:03:19 10° 355° (N) 1,731 6.5 -21.3°
Maximum altitude 22:07:06 71° 80° (E) 540 2.7 -21.4°
Enters shadow 22:07:16 70° 103° (ESE) 544 2.6 -21.4°
